Wind_Speed
2 3 3 4 5 4 3 5 5 5 5 6 6 3 1 4 4 3 2 6 6 2 6 6 6 2 5 7 8 12 15 16 16 15 15 16 15 15 15 15 15 14 13 12 11 10 8 7 7 7 7 7 8 9 11 13 13 14 15 16 17 18 18 18 17 16 15 16 17 18 19 19 18 17 15 15 16 17 18 19 19 17 16 14 13 14 16
3 4 5 6 8 6 5 6 4 3 5 6 6 3 3 6 6 4 6 10 6 3 4 4 6 9 13 16 16 13 12 10 9 10 10 12 14 15 17 17 16 15 14 14 13 12 10 8 6 5 5 5 5 7 9 10 11 11 12 13 14 14 15 15 14 13 12 12 12 12 14 14 13 12 12 13 12 11 11 11 11 11 11 11 12 12 13
4 4 5 7 7 6 6 7 7 5 5 6 5 3 3 7 6 4 8 10 5 5 5 4 9 18 22 22 20 20 20 17 13 10 8 8 9 11 13 16 17 15 15 16 15 14 12 9 7 5 4 4 5 6 8 8 9 10 10 10 11 11 11 11 10 10 10 9 9 8 9 9 8 8 8 8 7 7 7 7 7 8 9 9 9 9 9
3 3 5 5 5 7 7 7 9 8 6 5 4 4 4 4 5 4 7 7 2 6 5 6 13 20 21 18 17 19 22 22 20 16 10 4 4 7 9 12 15 14 15 16 15 15 14 12 10 8 7 6 5 5 6 6 7 8 8 8 9 10 9 9 9 10 10 9 9 8 8 7 7 7 7 7 7 7 8 8 8 8 8 8 8 8 9
3 3 4 5 5 6 4 3 5 5 3 7 6 7 9 5 4 4 4 3 2 5 4 7 11 13 15 16 17 18 20 22 22 18 15 10 3 6 9 11 12 12 13 14 13 13 13 13 12 10 9 9 7 5 6 7 6 6 5 6 8 9 8 8 9 9 9 9 9 9 8 8 8 8 8 8 8 8 9 9 9 10 10 9 9 9 9
2 4 3 6 4 1 3 5 4 1 7 13 11 7 8 8 5 5 4 2 1 4 6 8 8 10 14 19 22 23 22 23 23 19 17 16 11 5 5 8 10 11 12 13 9 9 10 10 11 12 13 13 10 8 8 8 7 6 6 7 8 7 7 9 9 8 8 9 9 9 9 9 9 9 9 9 9 9 10 10 10 11 11 11 11 11 11
2 2 5 5 1 4 5 3 4 5 11 15 14 10 9 9 7 6 6 4 4 6 8 7 10 14 19 24 27 27 25 24 24 22 20 17 14 11 9 8 9 10 10 8 5 4 5 4 5 10 13 14 12 10 8 8 7 5 5 7 6 6 7 8 8 8 9 10 10 10 9 10 11 11 11 12 13 13 14 14 13 13 13 13 12 12 12
2 1 4 2 5 3 1 3 4 5 7 8 10 10 9 8 6 5 5 5 7 9 13 11 8 13 20 26 26 25 23 22 23 23 21 19 15 12 9 8 8 8 6 6 5 4 2 3 0 6 9 10 10 10 8 8 7 6 6 7 6 6 7 8 8 8 9 10 11 11 11 12 12 12 12 11 11 12 12 13 13 14 14 14 14 13 12
3 4 2 2 2 1 2 4 3 2 2 2 3 6 3 5 7 6 4 5 8 10 16 16 6 7 12 19 19 20 21 18 19 20 19 18 17 14 10 7 6 6 4 3 1 2 5 7 7 3 3 4 6 7 7 8 8 8 8 8 7 6 6 7 7 8 8 9 11 12 11 11 11 10 9 8 8 7 7 8 9 10 12 13 13 13 12
3 5 2 1 2 4 3 4 5 5 6 3 4 6 3 4 8 9 5 4 8 8 13 18 11 4 6 7 9 16 19 16 15 16 16 16 16 15 12 9 8 5 3 3 4 7 8 9 11 11 8 7 7 6 7 8 10 10 10 9 8 7 7 7 8 9 10 10 11 11 11 11 11 10 8 8 8 9 9 8 8 8 10 12 13 14 13
3 5 3 2 3 4 4 5 8 12 14 6 3 6 2 4 9 11 7 6 9 8 9 14 13 8 5 2 7 14 17 14 13 13 13 13 13 13 12 11 10 9 8 6 4 6 7 8 9 9 9 10 12 12 11 10 10 11 12 12 10 9 8 8 8 9 9 10 11 12 13 13 12 11 11 12 13 13 12 11 10 10 10 11 13 15 15
1 3 3 1 2 1 2 5 9 15 15 7 5 4 2 5 10 12 10 11 12 11 11 12 10 6 2 3 8 13 13 10 11 11 11 11 11 11 11 10 9 9 8 7 5 6 8 10 10 9 8 9 10 11 11 11 12 13 14 15 15 14 12 10 9 9 10 11 12 13 13 13 13 13 14 15 16 15 14 14 15 15 14 13 13 15 16
2 3 4 1 1 1 3 6 11 15 10 5 4 4 5 4 10 14 15 16 15 15 15 12 7 4 5 7 10 12 11 11 11 10 10 10 10 10 11 11 10 10 10 9 8 8 9 10 11 12 13 13 12 12 11 11 12 13 15 17 17 18 17 16 14 14 13 13 14 14 15 15 16 16 16 16 16 16 16 17 18 19 19 18 15 16 17
3 2 3 2 1 1 5 5 11 13 5 2 1 2 4 9 11 12 15 15 14 14 14 12 10 9 10 11 12 12 13 14 14 14 14 13 13 13 13 13 13 14 13 13 13 12 11 11 11 12 14 16 15 14 14 13 13 14 15 16 16 16 17 17 17 16 16 16 16 17 17 17 17 17 16 16 16 17 19 20 20 21 22 21 18 16 16
2 3 3 3 1 3 5 4 8 10 4 2 3 7 10 12 12 12 13 12 12 12 12 12 13 13 13 14 15 15 16 16 17 17 18 19 19 20 20 19 19 19 19 18 18 17 15 14 13 13 15 17 16 16 16 15 15 15 15 15 15 15 15 15 16 16 16 17 17 17 17 17 18 18 17 16 16 17 20 21 22 23 24 21 18 16 15
2 2 2 1 1 4 9 8 5 6 7 8 9 10 10 11 11 12 12 11 11 11 12 13 14 15 16 17 17 18 19 20 20 21 21 22 24 25 25 24 23 23 24 24 23 22 20 18 15 13 14 16 18 19 20 18 16 15 16 16 16 17 17 18 19 19 20 20 19 19 18 18 19 19 19 19 19 20 22 23 23 24 24 20 17 16 15
4 3 3 5 8 13 19 18 13 12 13 12 11 10 10 10 10 10 10 9 10 11 12 14 15 15 17 18 19 20 21 22 22 23 24 24 25 25 25 25 23 23 25 26 27 27 26 23 20 16 14 14 15 16 17 18 18 18 18 17 17 17 17 16 17 18 20 21 21 20 20 20 21 21 21 21 21 21 22 24 24 24 23 20 16 15 14
6 7 7 8 11 14 15 14 14 15 14 12 11 10 9 9 8 7 8 8 9 10 11 13 14 14 15 17 18 19 20 21 22 23 24 24 24 24 24 23 22 22 23 26 28 29 29 28 26 23 19 17 16 13 12 13 14 16 18 19 19 19 18 17 16 15 17 19 20 21 22 22 22 21 20 20 20 20 21 23 24 23 22 20 17 14 13
3 4 5 4 7 12 14 14 14 16 14 11 10 9 7 7 6 6 7 8 9 10 10 12 14 14 15 16 18 19 20 21 23 23 24 24 23 23 23 23 22 22 24 26 27 29 30 31 30 27 25 23 22 20 18 16 15 15 17 18 20 20 20 20 19 17 16 17 18 19 20 20 21 21 21 21 22 22 22 23 24 24 22 20 17 15 14
3 4 2 4 5 9 15 18 16 14 13 10 8 7 6 6 7 7 9 10 11 13 13 14 15 17 17 18 20 20 21 22 22 23 24 24 23 23 23 23 23 23 24 25 26 27 29 30 30 30 29 27 26 24 24 22 21 20 19 20 21 22 22 21 21 20 18 16 16 17 18 20 21 22 22 22 22 22 22 22 23 22 19 16 15 15 14
3 1 5 8 2 3 12 19 15 12 11 10 10 10 9 10 10 10 11 12 13 14 15 16 17 19 20 21 21 21 21 20 21 21 22 22 23 23 24 25 25 25 26 26 27 28 29 29 30 30 31 30 28 27 26 25 23 23 24 23 23 24 25 24 24 22 21 18 16 17 19 21 22 23 23 22 21 20 20 20 20 18 15 15 15 14 12
2 2 3 6 2 3 10 16 13 10 11 12 13 13 12 13 13 13 15 15 14 13 14 15 17 19 20 21 22 22 22 21 21 22 22 23 24 25 26 27 29 29 29 29 29 29 29 29 29 30 31 31 29 28 27 27 26 26 26 25 25 26 27 27 27 25 24 22 20 19 20 21 22 22 22 21 22 21 21 20 17 16 16 15 14 13 12
2 2 1 4 3 1 6 10 9 10 12 13 13 13 12 13 14 15 16 16 15 14 13 14 16 18 20 23 25 26 26 26 26 25 25 26 27 27 27 28 29 30 30 30 30 31 31 30 29 30 31 31 29 27 26 26 26 26 26 25 25 25 25 27 27 26 25 24 23 22 20 20 21 21 21 21 23 24 22 19 16 16 16 14 13 14 13
4 4 4 4 4 3 4 7 8 10 12 12 12 11 12 14 15 16 15 14 13 14 16 17 18 20 22 24 25 26 27 28 28 28 29 30 31 31 30 30 30 31 32 32 33 34 34 33 33 33 34 35 35 32 30 28 28 27 27 26 25 24 24 24 25 25 24 23 23 22 21 18 18 19 20 22 23 23 19 17 16 16 15 14 14 14 12
4 4 2 2 2 2 4 6 8 9 11 11 11 11 12 12 13 13 13 13 13 16 18 19 20 20 21 21 22 22 25 26 25 26 28 29 31 32 32 32 33 33 34 35 36 37 38 38 38 38 38 39 39 37 36 35 34 32 31 30 28 27 26 25 25 25 24 23 23 22 21 19 19 20 21 22 22 20 18 16 16 16 15 14 13 12 10
4 2 1 1 1 2 6 8 7 8 10 11 10 10 10 11 11 11 11 12 13 15 17 18 19 19 19 20 21 22 23 24 23 22 21 22 22 23 24 26 27 29 31 33 34 36 37 38 39 40 41 42 41 40 40 39 39 39 38 36 35 33 30 28 27 26 25 24 24 23 21 20 21 22 23 23 23 22 21 20 19 17 15 13 10 9 10
2 1 1 1 1 3 5 5 4 5 8 8 7 7 8 9 9 8 9 12 14 16 17 18 19 20 20 19 20 21 22 21 20 19 18 18 18 17 18 19 21 22 24 26 28 29 30 31 33 35 37 38 38 38 40 40 41 41 40 39 38 37 35 32 29 27 25 23 23 23 23 22 22 23 24 23 23 23 23 22 19 17 14 13 12 12 12
1 2 3 1 1 1 0 2 4 6 7 5 5 6 7 6 7 9 11 13 15 17 19 19 18 19 19 19 19 20 19 19 18 17 17 17 16 15 16 18 18 16 15 16 16 16 17 19 21 24 26 27 28 29 31 33 35 36 37 37 36 36 36 36 33 30 27 24 23 23 23 23 23 24 23 23 24 24 22 19 17 15 15 17 18 18 16
1 1 1 1 1 2 2 3 5 6 4 2 3 5 5 6 8 10 12 14 16 18 21 21 18 16 17 16 16 16 16 16 15 15 14 13 13 13 14 14 11 9 9 9 9 9 10 12 14 16 19 21 23 25 26 27 29 30 32 32 32 33 34 35 34 32 30 27 25 24 23 23 24 23 23 24 26 24 20 17 16 17 19 22 23 23 21
1 1 1 0 0 1 3 5 6 5 3 1 3 4 5 7 8 10 13 15 16 16 20 22 19 16 15 15 13 12 12 12 11 11 10 10 9 9 7 6 6 9 11 12 11 12 12 14 15 17 18 19 20 22 24 26 28 28 28 28 28 28 29 30 31 32 31 30 29 26 24 23 22 22 23 24 23 20 17 16 18 22 25 26 25 23 22
2 2 2 1 1 1 3 4 3 3 4 4 4 4 5 6 8 10 12 16 16 15 17 21 21 18 16 15 13 10 9 9 9 9 8 6 4 4 6 10 13 16 16 14 13 16 19 20 19 19 19 19 19 18 17 19 22 24 24 25 26 24 23 24 28 29 28 29 28 27 26 24 22 20 20 21 21 20 19 21 25 27 27 26 23 21 19
3 4 3 2 2 1 2 2 2 3 6 6 4 4 5 6 8 9 12 16 18 15 15 18 21 22 19 16 12 10 8 8 7 6 5 3 4 7 11 15 17 17 15 12 13 18 22 24 25 25 23 20 18 18 15 11 11 14 16 20 23 21 18 19 24 26 25 23 23 24 25 25 21 17 18 21 24 24 24 26 28 27 24 22 20 19 18
4 6 4 4 4 5 4 2 1 3 5 4 4 5 6 6 7 8 10 15 18 17 14 16 20 23 22 18 14 10 8 6 5 4 5 5 6 9 14 16 16 15 14 13 13 17 21 24 26 28 28 25 19 14 11 7 2 8 11 14 18 19 16 17 20 24 24 20 17 18 20 20 18 18 21 24 25 25 25 26 26 23 21 19 19 18 17
5 5 3 3 6 7 5 2 1 3 4 3 3 4 6 7 7 8 9 14 18 17 14 15 18 21 23 21 17 13 10 8 8 7 7 7 8 11 14 16 15 14 13 14 15 16 19 22 24 26 28 28 23 15 12 12 12 12 13 15 17 18 17 17 19 21 22 20 17 16 16 17 18 21 23 24 24 25 26 26 24 22 20 19 18 18 18
4 3 2 3 5 6 4 2 4 4 4 4 4 5 7 8 8 7 7 12 16 16 14 14 16 18 21 21 20 17 15 14 13 12 11 11 11 12 15 15 12 12 13 15 17 18 18 20 23 25 28 29 28 22 17 15 14 14 13 15 15 15 16 18 21 22 22 21 19 18 18 18 21 24 26 27 26 25 24 22 21 20 20 19 18 18 17
3 4 5 6 5 5 3 4 5 4 3 6 6 6 6 7 6 5 6 10 14 16 14 13 13 15 18 20 20 19 16 16 16 15 15 15 15 15 15 13 11 11 14 16 17 18 18 19 22 25 28 31 32 30 25 22 19 17 16 16 16 17 18 21 23 23 23 22 21 22 24 25 27 28 28 26 24 22 20 20 20 20 19 18 16 16 15
4 5 8 8 5 4 5 4 2 1 2 6 6 5 6 7 6 5 6 9 13 15 14 12 11 12 15 16 18 17 16 14 16 17 17 17 17 17 15 12 11 13 16 16 16 16 17 19 20 22 25 29 31 32 31 30 29 27 25 24 24 23 23 24 24 24 25 26 28 30 30 30 28 26 24 22 21 20 19 19 18 18 18 17 16 16 16
6 7 9 9 6 5 5 2 1 1 2 4 4 5 6 6 6 6 7 8 11 13 13 11 9 10 11 13 14 15 15 14 14 15 17 17 18 17 15 13 13 15 16 16 14 14 15 17 18 19 22 24 26 28 30 32 33 34 33 32 32 31 30 29 29 29 30 30 30 29 28 26 24 22 20 19 18 17 17 17 17 17 17 16 15 15 15
9 9 10 10 8 7 5 3 2 1 1 1 4 6 5 4 5 7 6 6 9 11 12 11 10 10 10 11 12 13 14 13 12 13 15 18 19 18 17 15 15 14 14 14 13 12 12 13 15 17 19 22 23 25 26 28 30 32 32 32 32 32 31 31 30 29 27 25 24 22 21 19 19 18 18 17 16 15 15 16 17 16 16 15 15 15 15
10 10 9 9 10 9 7 5 4 3 2 3 4 6 5 3 5 6 5 4 6 8 9 10 12 12 11 10 10 11 12 11 10 11 13 15 18 19 19 18 16 14 12 12 12 12 11 11 12 14 15 17 19 20 22 23 25 26 27 27 26 26 25 24 23 22 21 19 18 17 17 16 16 17 17 17 17 17 17 17 16 16 15 15 15 14 15
10 10 8 7 8 9 8 6 4 3 3 4 5 7 6 4 4 5 5 3 3 4 6 8 10 12 12 11 10 10 10 10 10 10 11 13 16 19 20 19 18 15 14 13 12 12 11 12 13 13 13 13 14 15 16 18 20 21 21 21 21 21 20 19 19 18 17 17 17 16 16 16 16 17 17 17 17 18 18 17 16 16 16 15 14 14 14
8 9 9 7 7 8 8 5 4 4 5 5 6 7 6 5 4 5 5 4 2 2 3 5 7 10 11 11 9 9 9 10 9 10 11 13 15 17 18 18 16 15 14 14 14 14 13 13 13 12 12 11 11 11 12 13 14 14 14 14 14 14 15 15 16 16 15 15 16 16 15 15 15 15 16 16 17 17 17 17 17 16 15 14 14 14 14
8 9 9 9 9 8 7 5 4 5 7 8 8 7 6 5 4 5 5 5 3 2 2 2 3 6 8 9 9 9 9 9 9 9 10 12 13 14 14 14 12 12 12 13 15 16 16 15 13 12 10 9 8 8 7 8 8 8 9 9 9 9 10 11 11 12 12 13 14 14 14 14 14 14 15 15 15 16 15 15 14 14 13 12 12 12 12
9 10 10 10 10 10 9 7 6 7 9 11 9 6 5 4 4 5 5 5 4 2 1 1 1 3 5 7 7 8 9 10 9 8 8 9 10 11 10 10 9 9 10 11 12 14 14 14 13 11 10 9 8 8 7 8 8 7 7 7 6 7 8 9 10 10 10 11 12 12 12 12 12 12 12 12 12 12 12 11 11 11 10 10 11 11 11
11 11 10 11 12 12 11 10 9 8 10 11 10 6 4 4 4 5 5 4 4 3 3 2 1 3 5 7 7 7 8 9 9 9 8 8 9 9 8 8 7 8 9 10 11 12 12 12 11 9 9 8 8 7 8 8 9 8 8 8 7 6 6 6 6 7 7 8 8 8 9 9 10 10 10 10 11 11 11 11 11 11 11 11 11 10 10
12 12 10 11 12 13 13 13 12 9 9 11 12 8 6 5 5 5 4 2 2 3 3 3 2 3 4 6 7 8 8 8 9 10 9 9 9 9 8 7 7 8 8 9 10 11 11 11 10 9 9 8 7 7 8 8 8 7 7 7 6 5 4 3 3 3 3 3 3 4 5 6 6 7 8 8 9 10 10 10 10 10 9 9 9 8 8
11 12 12 12 12 12 13 15 13 11 10 12 12 10 7 6 6 6 4 1 2 3 3 3 3 3 4 5 6 6 7 7 8 9 10 10 10 9 9 8 8 8 9 9 10 11 11 10 10 10 9 8 8 8 8 8 8 7 7 6 5 4 4 3 2 2 1 0 1 1 2 2 3 3 4 4 5 5 5 5 6 5 5 5 5 5 6
11 12 13 12 11 10 11 14 15 13 13 13 13 10 8 7 7 7 6 4 2 2 3 3 3 2 3 4 4 4 5 6 7 8 10 10 10 9 9 9 9 9 10 10 10 11 11 10 10 9 9 8 8 8 8 8 8 8 7 7 6 6 5 3 2 2 1 1 1 1 1 1 2 2 2 2 3 3 3 4 4 4 3 3 3 3 4
12 12 13 13 12 10 10 14 16 16 15 14 14 12 10 9 8 7 7 6 4 2 1 2 2 2 2 2 3 4 5 6 7 8 10 11 10 9 9 9 9 9 9 9 10 10 11 11 10 10 9 9 8 8 8 8 8 8 8 8 8 8 7 6 5 4 4 3 3 4 4 4 4 4 4 4 4 4 5 5 5 4 4 3 2 2 2
13 13 13 14 14 13 12 13 16 17 16 15 14 13 13 12 11 10 9 7 6 4 4 4 3 2 1 0 1 2 3 4 6 8 9 10 10 9 9 9 9 9 9 9 9 9 10 10 11 11 10 10 9 9 8 8 8 8 8 9 9 9 8 7 7 6 7 7 6 6 6 6 6 6 6 5 5 5 5 6 5 5 4 4 4 3 2
14 15 15 15 15 15 14 13 14 16 17 16 15 15 16 15 14 12 10 9 8 7 8 8 6 4 2 2 2 2 2 3 4 6 7 8 9 9 10 9 8 8 8 8 9 9 9 9 10 11 11 10 10 10 10 9 9 9 9 9 9 9 8 8 7 8 8 8 7 6 6 6 6 6 6 6 5 5 5 6 6 6 6 5 4 3 2
14 15 16 15 15 16 16 15 14 14 16 18 18 18 18 18 17 15 13 12 10 10 11 11 10 7 5 3 4 4 3 3 4 4 5 6 7 8 8 8 7 7 7 7 8 9 9 9 10 10 10 10 11 11 10 10 10 10 10 9 9 9 8 8 8 9 9 8 7 6 5 5 4 5 6 5 5 5 6 6 6 6 6 6 5 5 4
Wind_Direction
111 98 56 36 58 63 44 27 4 358 31 65 84 73 213 139 123 219 236 83 87 320 339 351 330 342 114 110 117 143 155 159 164 167 167 164 161 161 165 169 174 173 165 156 149 144 138 134 132 123 117 123 134 147 154 159 167 176 184 189 196 203 209 215 219 218 221 227 230 231 232 235 241 245 244 241 241 242 242 243 245 248 251 255 258 258 257
42 36 42 51 56 51 42 32 13 29 72 84 92 82 81 92 100 160 126 88 73 359 341 342 5 42 73 78 76 83 90 110 144 158 157 153 150 153 155 155 158 164 168 167 164 162 159 157 150 126 108 109 117 131 142 149 157 164 172 183 192 199 205 211 214 216 222 225 225 226 226 230 235 238 239 240 240 240 239 241 245 248 252 255 255 258 260
347 355 48 58 61 69 60 25 3 19 60 60 58 46 56 77 77 89 90 80 48 351 345 1 46 63 71 69 64 62 62 72 89 102 124 149 156 161 162 161 158 155 158 162 162 161 160 165 170 158 138 129 126 127 132 141 149 149 154 166 174 183 191 195 198 199 200 199 201 205 207 211 215 214 214 217 220 221 223 224 229 235 242 247 250 255 259
303 329 57 56 62 70 59 24 357 357 32 61 61 27 26 99 129 98 69 71 4 317 345 36 56 64 68 64 60 61 60 63 67 70 78 110 183 194 184 174 166 156 151 154 158 161 165 168 172 171 162 148 142 141 143 151 154 150 155 167 173 178 182 183 188 188 186 184 183 183 185 187 185 183 184 189 194 203 210 213 218 228 237 246 253 255 257
287 307 63 65 57 47 16 332 324 322 58 84 72 32 18 37 115 108 88 116 254 303 2 58 59 60 65 64 62 64 63 61 62 63 64 64 93 206 204 191 182 170 156 147 143 149 161 168 169 170 171 167 162 160 161 165 164 157 164 183 189 190 186 182 186 186 183 182 182 186 190 191 193 196 199 204 207 212 217 222 229 238 246 254 259 262 264
253 286 35 56 52 40 253 267 293 277 107 91 78 48 17 17 48 84 112 137 320 348 37 71 80 78 75 69 64 64 64 62 60 60 62 62 67 96 154 175 175 166 158 155 142 122 127 146 159 162 166 167 164 163 167 172 176 176 173 174 182 193 192 188 190 193 193 194 197 202 203 202 205 207 208 215 223 227 231 235 239 245 251 255 259 266 272
183 298 45 56 255 219 213 267 348 82 106 98 88 67 29 20 32 55 63 40 5 19 40 67 101 95 79 69 62 59 60 59 56 57 58 58 65 78 90 112 125 117 118 136 145 115 101 111 138 152 162 167 168 173 183 187 192 198 185 174 183 201 202 199 202 206 206 205 207 212 215 217 220 222 226 231 235 238 241 244 246 249 252 256 260 266 273
150 98 85 150 226 219 142 347 8 67 83 78 77 60 24 10 14 36 50 21 3 16 24 39 103 108 78 63 55 51 52 52 51 52 53 52 56 68 81 102 128 132 123 111 96 69 18 340 352 144 155 173 184 189 197 198 195 198 197 196 202 206 208 218 229 231 225 219 218 222 225 227 231 236 237 233 229 230 233 237 241 245 250 255 258 261 266
143 142 165 197 223 249 2 346 338 44 14 338 105 95 44 359 6 20 42 18 8 14 20 26 62 129 77 54 41 38 39 38 40 44 47 47 46 52 69 88 117 149 183 206 233 292 296 294 289 272 159 182 194 189 193 194 191 194 200 205 207 206 215 231 240 246 246 236 230 232 236 241 248 251 246 236 232 234 236 235 238 242 244 248 252 255 260
115 118 150 161 175 214 250 290 290 315 330 292 158 118 84 343 359 16 41 27 8 10 20 25 29 65 69 39 12 24 29 24 26 32 35 38 36 36 45 46 40 43 22 334 293 279 292 302 300 300 294 269 246 227 215 208 203 205 209 209 208 211 224 237 245 252 252 241 234 238 249 260 269 273 273 273 275 276 271 263 258 254 249 245 246 250 256
114 122 147 172 181 211 252 273 296 327 335 328 121 98 60 322 344 1 20 23 8 4 23 38 42 49 58 344 342 13 23 23 25 25 23 28 27 21 19 14 11 13 3 348 317 293 305 313 310 308 296 273 258 250 246 242 237 232 227 224 223 225 232 240 243 244 242 235 235 243 254 262 269 276 283 286 286 285 281 276 277 279 275 262 252 249 252
109 125 124 126 139 137 277 272 302 328 335 355 89 117 253 315 349 5 24 34 28 26 39 54 62 69 71 322 345 2 7 10 21 20 13 12 12 10 6 355 349 348 342 334 316 305 306 303 299 297 291 282 275 266 258 252 252 251 244 239 236 237 240 243 241 242 243 243 243 246 250 256 262 270 277 279 280 282 284 287 290 293 295 288 270 256 252
45 87 101 102 121 349 293 294 321 331 340 36 94 192 231 344 17 34 45 44 37 33 37 44 47 35 18 359 348 347 342 340 348 352 351 348 343 344 344 339 331 320 312 313 312 311 311 305 297 290 281 277 278 277 270 258 254 257 258 256 253 250 250 250 252 257 260 260 258 258 258 260 265 269 272 274 278 283 287 290 293 295 299 299 286 266 258
25 78 109 108 90 296 272 304 355 5 25 105 121 156 86 44 38 42 42 37 30 24 23 23 10 356 354 345 334 331 327 324 322 320 321 322 317 312 310 311 315 311 303 299 296 293 294 294 294 292 286 278 273 272 272 268 265 268 267 262 257 254 252 254 257 261 263 263 263 263 262 263 266 268 270 273 276 280 283 285 288 292 296 297 289 274 267
42 60 70 103 153 295 291 309 4 22 60 129 66 72 63 44 35 27 21 22 20 9 1 357 349 339 331 324 320 317 314 311 308 304 306 309 309 308 304 298 300 303 302 298 293 289 288 288 288 290 287 280 276 274 273 269 268 270 265 256 252 252 252 254 255 255 256 257 257 256 257 260 262 264 266 269 272 275 279 281 285 287 289 292 289 280 276
73 62 42 92 145 28 50 75 78 66 73 66 60 61 47 30 25 15 5 6 6 356 345 338 331 325 320 315 312 310 306 304 301 299 300 302 302 302 300 296 295 296 295 293 290 287 285 284 286 294 294 285 278 277 275 272 268 265 258 249 247 251 255 257 255 252 252 255 256 256 255 255 257 260 264 268 272 275 277 278 279 280 283 287 288 284 283
89 95 64 74 82 71 70 77 77 67 61 54 51 49 34 21 14 4 359 358 351 343 336 329 323 318 315 312 309 308 306 304 302 299 296 297 296 294 294 294 294 292 290 289 288 285 283 281 281 286 294 293 285 278 272 266 263 262 258 249 242 241 244 248 251 252 252 253 253 254 253 254 259 264 267 268 269 271 272 273 273 274 277 281 283 283 284
94 68 45 64 86 80 74 72 61 51 52 49 44 42 31 19 12 1 356 350 342 336 332 329 326 323 320 316 312 310 308 305 303 301 297 295 294 293 293 294 295 294 291 288 286 285 283 281 280 280 282 284 284 279 268 256 250 251 252 250 246 242 240 239 240 244 248 250 251 254 256 259 264 265 264 263 265 267 268 267 266 268 271 272 273 276 280
105 73 16 27 96 81 61 53 43 38 46 50 43 41 33 19 10 354 342 337 333 329 326 324 321 317 316 315 311 308 307 304 301 300 299 298 298 295 294 293 293 293 291 289 288 286 283 281 280 279 277 275 275 276 274 267 259 250 246 245 244 244 243 241 239 239 240 245 251 254 254 256 259 261 261 262 265 267 267 264 260 259 259 258 261 272 281
113 158 327 356 120 98 50 36 32 32 39 38 27 23 13 353 344 336 333 330 324 319 316 313 310 307 306 308 307 305 303 301 300 299 298 297 296 293 290 289 288 286 286 286 286 286 284 282 282 280 278 274 271 272 273 273 270 265 258 253 248 246 245 243 242 241 240 242 248 252 252 253 256 258 261 263 266 268 267 260 252 245 243 251 266 276 278
61 167 345 3 105 135 21 23 31 33 26 15 4 359 350 342 338 332 328 326 323 321 317 311 308 306 304 303 303 302 301 299 297 296 293 291 289 287 285 286 286 285 285 284 283 283 283 283 283 283 281 276 271 269 269 269 268 267 264 262 258 255 253 251 250 249 245 243 246 251 254 257 262 264 265 266 266 263 255 247 241 239 248 267 276 273 265
22 249 325 12 77 250 345 9 25 21 6 357 353 351 346 343 340 333 328 325 322 321 317 311 308 306 303 302 302 301 300 298 294 291 288 285 283 282 282 283 282 282 281 281 280 280 279 280 281 282 281 278 274 270 267 266 265 264 263 261 260 258 257 257 256 253 250 247 247 249 253 257 263 267 268 265 258 249 242 240 246 258 270 275 271 261 258
185 193 131 64 86 248 341 6 12 358 348 345 346 347 344 340 337 334 330 326 321 319 318 314 311 308 304 303 302 299 297 294 291 289 287 284 281 280 278 277 277 277 276 276 276 277 278 278 277 276 276 275 273 270 266 264 263 262 261 259 256 254 253 254 254 254 253 250 247 247 252 257 259 261 262 258 249 242 241 246 257 267 269 264 258 257 258
147 118 100 74 71 58 21 11 355 341 339 339 340 341 336 332 330 329 327 326 325 323 320 315 312 309 305 302 300 298 296 294 291 289 286 283 282 281 279 278 276 274 274 274 274 275 276 275 273 272 272 272 272 270 267 264 262 261 259 256 253 251 249 250 250 251 250 248 244 244 250 255 256 255 254 249 243 239 240 249 258 259 255 250 252 255 250
131 122 97 60 76 59 12 355 339 333 333 333 334 334 333 335 332 324 322 325 326 326 325 323 321 318 315 313 311 307 305 304 302 296 290 285 282 281 279 278 277 275 274 273 272 272 273 272 271 269 269 269 269 269 268 266 264 261 258 254 251 249 248 247 249 250 251 248 244 243 248 252 252 251 248 245 244 245 247 251 251 246 242 243 247 247 232
137 143 40 38 55 346 336 331 328 329 326 324 328 334 335 333 325 318 324 336 341 344 345 340 335 330 326 322 319 316 316 317 316 311 305 300 296 291 287 284 281 279 277 276 275 275 274 273 272 270 269 268 267 267 267 267 267 265 262 258 253 248 244 243 245 247 247 245 242 242 244 246 248 249 248 247 249 253 254 252 246 238 235 231 224 216 204
148 267 324 43 54 358 340 329 327 332 329 330 339 339 330 325 325 334 352 1 1 360 355 347 340 336 333 328 324 323 323 322 321 320 321 322 321 316 308 301 295 289 285 282 281 281 280 280 279 277 275 273 271 268 267 266 265 264 263 261 257 250 243 240 240 240 239 238 238 238 239 240 244 246 247 248 251 252 251 249 243 233 223 206 186 182 184
107 338 347 23 102 147 278 293 303 316 329 345 345 329 328 346 11 19 15 9 6 4 0 354 347 341 337 333 329 326 325 324 325 328 330 331 330 326 320 317 316 314 309 305 303 300 297 294 291 287 285 283 278 273 269 266 263 261 259 258 256 250 242 237 236 235 232 231 234 235 236 239 242 244 245 247 246 241 236 233 230 220 203 185 174 172 174
75 37 28 37 141 193 232 299 317 322 333 354 336 333 358 26 28 22 15 9 9 10 7 3 356 347 342 339 333 330 330 331 332 333 331 329 329 327 325 329 338 350 1 5 3 354 339 325 315 307 301 293 283 276 270 265 261 259 256 254 252 248 241 235 232 231 228 227 229 232 234 237 240 242 243 239 230 221 213 210 208 199 184 173 168 165 164
92 113 142 302 218 245 304 331 341 344 356 14 352 4 28 30 20 19 18 12 8 9 9 8 5 0 355 351 347 343 340 338 337 334 329 331 334 336 343 4 35 49 50 46 39 28 11 356 345 333 321 308 294 281 271 263 259 256 253 250 248 244 239 232 228 227 226 225 225 227 230 232 234 237 236 225 211 200 198 197 189 179 170 165 163 161 160
150 176 202 225 222 276 331 340 349 20 40 40 29 32 41 34 25 24 19 13 11 10 8 10 12 13 9 4 0 355 348 344 342 336 331 339 359 32 65 71 68 62 56 51 44 34 25 18 10 359 344 329 316 305 290 273 260 253 247 242 238 237 233 225 220 220 222 224 227 230 228 224 223 225 225 215 201 194 192 184 172 165 163 161 160 161 161
175 183 193 211 225 240 299 309 312 27 33 31 34 42 43 34 28 24 18 15 14 13 10 11 15 18 18 14 9 5 359 354 349 344 349 26 65 82 82 76 69 63 55 45 38 34 31 30 28 22 14 359 339 328 324 304 264 242 230 224 221 218 216 213 212 214 215 220 229 230 220 210 209 214 213 204 196 189 181 170 163 161 161 160 159 161 162
201 202 214 226 215 205 207 231 278 12 17 21 35 39 33 25 20 19 18 16 13 12 15 18 19 20 21 21 21 19 16 14 14 14 26 47 71 83 83 79 74 66 55 44 40 38 35 33 29 24 23 21 10 355 359 15 127 173 182 192 195 193 191 195 202 207 209 211 220 221 208 198 198 202 198 191 184 173 163 158 157 157 155 154 156 156 154
238 229 235 225 201 193 192 206 318 353 357 6 23 19 15 14 7 2 10 15 12 10 15 23 24 22 22 25 30 35 39 46 51 51 53 63 75 82 84 82 78 68 56 47 43 41 39 36 31 27 30 34 36 36 44 62 87 116 138 154 163 170 176 182 187 194 198 199 200 202 198 195 193 188 179 170 162 155 152 154 155 154 151 152 155 157 158
244 220 189 181 186 188 198 274 310 312 321 336 348 357 8 12 1 346 2 15 12 7 12 23 28 26 24 26 32 41 51 59 63 64 70 78 84 86 88 88 83 70 58 50 44 42 43 43 42 41 42 46 50 55 63 72 85 103 125 143 154 164 175 179 180 183 186 189 188 186 182 176 170 162 153 148 148 151 154 156 157 158 157 156 157 161 166
231 206 188 184 188 200 234 288 295 285 315 344 350 355 8 11 3 355 10 16 11 8 11 19 25 27 27 28 30 36 48 62 69 71 74 80 83 86 92 96 90 74 62 56 51 49 49 50 52 54 55 55 58 62 69 77 88 100 116 131 141 150 159 164 167 169 170 169 164 156 151 148 146 144 142 144 149 153 156 157 160 164 168 170 172 174 179
215 206 194 190 201 235 264 288 288 215 23 13 9 7 10 11 9 14 22 17 12 11 13 16 21 27 30 30 29 30 37 52 65 70 74 77 80 86 96 102 93 76 67 63 61 60 58 56 56 61 64 64 65 68 72 77 84 91 99 108 116 123 128 133 136 138 139 140 139 139 139 140 140 141 143 148 152 156 159 161 165 170 177 182 187 190 194
204 202 198 197 213 245 262 269 183 151 37 21 7 356 359 2 0 8 22 21 14 12 15 19 21 25 28 31 32 31 31 38 51 64 71 75 77 84 93 96 85 74 70 68 66 67 69 66 61 62 66 68 70 73 77 80 83 87 91 95 101 106 110 115 119 123 127 130 132 135 136 137 139 143 148 153 156 159 162 166 169 173 177 183 189 193 197
201 200 202 207 224 245 246 215 191 233 302 343 338 343 353 354 347 354 9 17 13 15 22 29 30 28 27 29 32 33 35 35 40 52 65 72 76 79 83 84 80 77 77 76 72 69 70 71 68 68 71 73 73 76 79 81 83 86 89 92 96 100 105 110 114 117 121 123 126 129 133 138 144 151 156 160 162 164 165 168 171 173 175 179 184 188 191
201 202 209 224 239 242 228 202 198 231 244 252 299 330 344 337 331 342 353 359 6 13 25 34 37 35 31 29 30 34 39 42 43 50 63 73 78 80 79 77 78 82 86 85 81 76 73 73 73 75 78 80 80 80 81 83 85 87 89 91 94 97 102 107 111 115 119 124 129 136 142 147 150 154 157 161 166 168 170 173 174 175 176 180 185 189 193
205 207 219 237 239 226 214 209 219 231 224 237 281 318 333 328 324 338 347 347 353 4 20 34 39 35 31 31 34 37 43 48 51 57 66 70 73 75 74 69 67 73 83 88 88 84 80 78 77 76 78 82 84 86 89 91 91 93 94 96 98 101 105 110 116 122 128 134 140 144 147 150 152 153 157 161 166 170 175 178 179 180 183 189 193 197 202
212 215 226 238 232 216 210 223 254 253 237 244 274 306 325 329 328 338 345 344 331 326 352 25 38 34 29 29 32 40 49 54 54 58 65 67 67 69 70 66 62 66 77 87 91 89 85 81 79 78 78 79 82 87 92 94 95 97 100 102 105 109 112 116 121 126 133 140 145 149 153 158 160 162 165 168 171 175 179 182 184 187 192 198 203 207 211
225 223 229 236 234 225 222 240 272 266 248 249 268 295 315 325 327 331 337 344 340 309 306 346 27 35 31 29 30 38 48 53 52 54 62 67 68 70 71 69 62 58 64 76 85 87 84 80 77 75 75 78 81 82 83 81 83 89 95 99 105 114 120 124 127 131 139 146 151 155 160 164 167 169 173 176 178 181 184 189 194 198 202 207 211 213 215
236 235 239 239 235 232 236 248 263 263 252 250 260 284 312 327 328 323 324 337 352 0 350 345 27 48 46 41 40 43 48 52 54 55 58 66 72 74 73 71 65 54 51 57 67 75 78 78 76 73 71 71 73 74 73 71 70 70 72 81 97 114 125 133 138 143 150 156 159 161 166 170 172 176 180 183 187 192 196 202 208 213 215 215 215 215 218
246 249 252 244 236 235 238 240 247 258 258 251 251 267 306 324 323 318 320 336 4 22 24 21 47 67 63 58 56 55 55 58 62 60 55 57 66 70 68 65 61 54 47 47 55 63 68 70 71 71 70 67 65 66 68 70 72 71 70 72 77 88 104 123 138 148 157 164 168 171 177 183 187 192 197 201 207 212 217 222 226 230 232 234 233 232 230
252 255 256 252 247 241 234 232 240 256 259 245 240 251 278 297 301 307 315 351 50 51 37 26 34 54 65 67 65 63 63 67 71 68 59 52 53 56 57 56 56 55 53 52 54 59 62 63 65 68 70 69 69 69 68 68 69 72 75 79 83 88 96 107 121 140 161 182 194 198 203 208 212 215 218 220 220 222 226 230 233 237 238 239 239 238 232
257 254 254 260 264 254 237 231 237 248 247 239 239 248 259 266 277 290 291 271 86 65 51 40 33 40 51 60 65 69 72 75 77 77 72 65 56 50 46 44 47 50 53 54 57 59 59 58 59 60 61 62 65 68 70 72 72 71 72 75 79 84 91 99 109 115 127 170 246 248 251 246 231 219 215 211 205 205 205 203 202 207 215 219 219 219 218
258 259 259 266 273 266 242 231 232 236 237 238 243 249 250 250 264 276 265 237 195 73 50 39 32 33 39 45 57 74 83 81 80 81 81 77 70 60 52 47 45 45 46 48 53 58 59 57 57 58 58 57 58 59 61 65 68 68 68 67 63 58 57 56 54 54 58 56 59 51 51 74 119 136 142 145 144 141 139 141 146 153 165 177 187 196 200
257 264 265 265 267 265 247 231 227 228 230 234 239 244 243 241 249 257 249 231 215 209 307 351 13 31 42 44 53 70 83 87 88 87 85 81 76 68 61 56 52 50 49 48 50 54 58 59 59 59 58 59 60 59 57 55 54 55 57 59 58 56 56 57 56 49 39 36 43 51 58 70 87 95 93 89 88 90 95 101 104 107 110 112 115 133 160
257 260 261 258 257 259 254 241 232 228 226 227 231 236 236 235 240 248 247 234 220 224 249 275 301 330 352 66 70 68 80 89 89 86 86 88 86 80 72 63 56 53 55 56 54 54 56 58 58 59 59 58 58 60 61 60 57 53 51 52 52 51 50 52 53 50 47 48 50 52 52 58 66 72 73 70 69 76 86 91 90 84 79 77 79 88 106
258 257 259 259 259 259 260 255 245 237 232 229 228 230 233 236 241 248 248 238 227 227 239 251 261 272 265 205 180 155 120 106 96 89 88 91 90 86 81 74 62 55 56 59 60 60 59 59 59 60 60 58 56 55 56 58 61 62 60 57 55 54 53 51 50 51 54 58 58 54 50 49 48 47 47 53 62 72 79 80 74 64 56 51 51 56 72
263 261 259 258 259 259 260 259 257 251 243 236 231 230 233 238 239 238 236 235 234 234 237 243 252 264 272 247 209 191 172 147 128 116 107 101 96 90 86 82 75 67 62 62 62 62 61 61 61 60 59 60 60 59 55 54 55 58 60 60 59 59 58 56 54 54 56 57 55 50 45 40 33 29 34 45 59 68 72 70 61 53 49 45 39 34 38
Height
1477 1476 1476 1477 1478 1480 1482 1481 1481 1480 1479 1479 1481 1483 1483 1482 1485 1490 1491 1491 1493 1495 1494 1492 1490 1487 1486 1486 1486 1486 1487 1488 1489 1490 1491 1492 1493 1494 1494 1495 1496 1497 1498 1499 1500 1500 1501 1501 1502 1502 1503 1503 1503 1504 1505 1505 1506 1507 1509 1510 1511 1511 1512 1512 1513 1514 1516 1517 1518 1519 1520 1521 1522 1522 1522 1522 1523 1523 1524 1524 1525 1526 1526 1527 1527 1527 1527
1477 1475 1475 1477 1478 1480 1482 1484 1485 1483 1481 1481 1483 1486 1487 1486 1488 1493 1493 1494 1496 1497 1496 1493 1492 1491 1489 1488 1489 1489 1489 1490 1490 1490 1492 1492 1493 1494 1495 1495 1496 1497 1497 1498 1499 1500 1501 1502 1502 1503 1503 1504 1504 1505 1505 1506 1506 1507 1508 1509 1510 1511 1512 1512 1513 1514 1515 1516 1516 1517 1518 1518 1519 1519 1519 1520 1521 1521 1522 1522 1523 1523 1524 1524 1524 1525 1525
1479 1476 1477 1479 1480 1481 1483 1486 1488 1485 1483 1485 1486 1489 1490 1490 1494 1497 1494 1495 1498 1498 1496 1495 1494 1492 1491 1490 1491 1492 1492 1492 1491 1491 1492 1492 1493 1494 1495 1496 1497 1497 1497 1497 1498 1499 1500 1501 1502 1502 1503 1504 1505 1506 1506 1507 1507 1507 1508 1509 1509 1510 1511 1512 1513 1513 1514 1515 1515 1516 1517 1517 1518 1518 1518 1519 1519 1520 1520 1521 1521 1521 1522 1522 1523 1523 1523
1482 1479 1479 1480 1480 1481 1483 1488 1490 1488 1487 1490 1492 1494 1494 1493 1496 1497 1495 1498 1502 1500 1498 1497 1495 1494 1494 1495 1496 1495 1495 1494 1493 1493 1492 1492 1493 1494 1495 1496 1497 1498 1498 1498 1499 1499 1499 1500 1501 1501 1503 1503 1504 1505 1506 1507 1507 1508 1508 1508 1509 1510 1510 1511 1512 1513 1513 1514 1515 1516 1516 1516 1517 1517 1517 1518 1518 1519 1519 1519 1519 1520 1520 1521 1521 1521 1522
1484 1483 1481 1479 1480 1484 1488 1492 1495 1494 1492 1493 1496 1499 1500 1498 1497 1497 1498 1502 1505 1502 1499 1499 1498 1498 1498 1499 1499 1499 1498 1497 1496 1495 1494 1493 1493 1493 1495 1496 1497 1498 1499 1499 1500 1500 1500 1500 1500 1501 1502 1503 1504 1504 1505 1506 1507 1508 1508 1509 1509 1510 1510 1511 1512 1513 1513 1514 1514 1515 1515 1516 1516 1516 1517 1517 1517 1518 1518 1518 1518 1518 1519 1519 1519 1520 1520
1486 1486 1481 1481 1486 1493 1496 1497 1496 1495 1493 1494 1501 1507 1507 1504 1502 1502 1504 1505 1505 1503 1502 1501 1501 1501 1501 1502 1502 1501 1501 1500 1499 1498 1497 1496 1495 1494 1495 1496 1497 1498 1498 1498 1501 1502 1502 1501 1501 1501 1502 1503 1503 1504 1505 1505 1506 1507 1508 1508 1509 1510 1510 1511 1512 1512 1513 1513 1514 1514 1514 1515 1515 1516 1516 1516 1517 1517 1517 1517 1517 1517 1518 1518 1518 1518 1519
1487 1488 1485 1489 1495 1497 1498 1499 1497 1496 1495 1496 1502 1508 1509 1507 1507 1507 1507 1507 1505 1504 1504 1504 1503 1503 1502 1502 1502 1502 1503 1502 1501 1500 1500 1499 1498 1497 1497 1497 1498 1499 1499 1499 1501 1503 1504 1503 1502 1502 1502 1502 1503 1503 1504 1505 1506 1506 1507 1508 1508 1509 1510 1511 1511 1512 1512 1513 1513 1513 1514 1514 1515 1515 1515 1515 1516 1516 1516 1516 1516 1516 1517 1517 1517 1517 1517
1487 1489 1488 1493 1497 1496 1498 1500 1498 1497 1498 1497 1499 1506 1511 1510 1509 1508 1508 1508 1506 1505 1504 1504 1503 1503 1501 1500 1501 1504 1505 1504 1503 1502 1502 1501 1501 1499 1499 1499 1499 1499 1501 1501 1502 1504 1505 1505 1504 1502 1502 1502 1502 1503 1503 1504 1504 1505 1506 1507 1507 1508 1509 1510 1510 1511 1511 1512 1512 1512 1513 1513 1513 1514 1514 1514 1514 1514 1515 1515 1515 1515 1515 1515 1515 1515 1516
1485 1488 1489 1493 1496 1498 1501 1502 1500 1500 1501 1499 1499 1507 1513 1512 1510 1510 1509 1508 1507 1505 1503 1503 1503 1501 1500 1500 1502 1504 1505 1505 1505 1505 1504 1503 1503 1502 1501 1501 1501 1501 1502 1502 1502 1503 1504 1504 1503 1503 1502 1502 1502 1502 1502 1503 1503 1504 1504 1505 1506 1506 1507 1508 1509 1509 1510 1510 1511 1511 1512 1512 1512 1512 1512 1512 1513 1513 1513 1514 1514 1513 1513 1513 1513 1514 1514
1482 1486 1490 1494 1496 1499 1503 1504 1502 1500 1501 1500 1498 1504 1513 1513 1510 1510 1509 1508 1508 1506 1504 1503 1501 1500 1501 1504 1506 1505 1505 1505 1505 1505 1505 1505 1504 1504 1503 1503 1503 1503 1503 1503 1502 1503 1503 1502 1502 1502 1502 1502 1502 1502 1502 1502 1502 1502 1503 1504 1504 1504 1505 1506 1507 1508 1509 1509 1509 1510 1510 1510 1510 1510 1511 1511 1511 1511 1512 1512 1512 1512 1512 1511 1512 1512 1512
1481 1482 1486 1491 1497 1503 1506 1505 1501 1497 1498 1498 1496 1503 1513 1514 1510 1510 1510 1509 1509 1507 1506 1505 1503 1502 1506 1508 1508 1506 1505 1505 1504 1504 1505 1505 1505 1505 1505 1504 1504 1503 1503 1503 1503 1502 1502 1502 1501 1500 1501 1501 1501 1501 1501 1501 1501 1501 1502 1503 1503 1503 1504 1504 1505 1506 1507 1508 1508 1508 1509 1509 1509 1509 1509 1509 1509 1509 1510 1510 1510 1510 1510 1510 1510 1510 1510
1481 1481 1487 1497 1504 1507 1507 1503 1500 1498 1496 1494 1497 1506 1514 1513 1511 1511 1510 1510 1510 1509 1508 1507 1506 1507 1509 1509 1507 1506 1505 1505 1504 1503 1503 1503 1503 1503 1503 1503 1503 1502 1502 1501 1501 1501 1501 1501 1501 1500 1500 1500 1499 1500 1500 1500 1500 1500 1501 1501 1502 1502 1502 1503 1504 1504 1505 1506 1506 1507 1507 1507 1507 1507 1508 1508 1508 1508 1508 1508 1508 1508 1508 1508 1508 1508 1508
1483 1485 1495 1506 1510 1507 1505 1503 1501 1497 1495 1496 1503 1510 1513 1512 1511 1511 1510 1510 1510 1510 1508 1508 1508 1509 1509 1508 1506 1505 1504 1503 1503 1503 1503 1502 1502 1501 1501 1501 1501 1500 1500 1500 1499 1499 1499 1499 1499 1499 1499 1498 1498 1498 1498 1498 1498 1499 1499 1500 1500 1500 1500 1500 1501 1502 1503 1504 1504 1504 1505 1505 1505 1506 1506 1506 1506 1506 1505 1505 1505 1505 1506 1506 1506 1506 1505
1489 1490 1499 1509 1512 1508 1504 1503 1500 1496 1498 1505 1510 1511 1511 1511 1511 1510 1509 1509 1509 1509 1509 1508 1508 1507 1507 1506 1505 1503 1502 1502 1501 1501 1501 1501 1500 1500 1499 1499 1499 1498 1498 1498 1498 1497 1497 1496 1496 1496 1496 1496 1496 1496 1496 1496 1496 1496 1497 1497 1497 1498 1498 1498 1498 1499 1500 1501 1501 1502 1502 1503 1503 1503 1504 1504 1504 1504 1504 1503 1503 1503 1504 1504 1503 1503 1503
1496 1499 1504 1512 1514 1509 1503 1502 1502 1502 1506 1511 1512 1510 1510 1511 1510 1509 1509 1509 1509 1509 1508 1508 1507 1506 1505 1504 1503 1501 1501 1500 1500 1499 1499 1499 1498 1498 1498 1497 1497 1496 1495 1495 1495 1495 1495 1494 1494 1493 1493 1492 1492 1493 1493 1493 1493 1493 1493 1494 1494 1495 1495 1496 1496 1497 1497 1498 1499 1499 1500 1500 1501 1501 1502 1502 1502 1502 1502 1501 1501 1501 1502 1502 1502 1501 1502
1500 1507 1511 1513 1513 1509 1504 1505 1508 1509 1511 1511 1510 1509 1510 1510 1509 1509 1509 1508 1508 1508 1507 1506 1506 1504 1503 1502 1501 1500 1499 1498 1498 1497 1497 1496 1496 1496 1495 1495 1495 1494 1493 1492 1492 1492 1492 1492 1492 1491 1490 1489 1489 1489 1490 1490 1490 1490 1490 1490 1491 1491 1492 1493 1494 1495 1495 1496 1496 1497 1497 1498 1498 1499 1499 1500 1500 1500 1500 1499 1500 1500 1500 1500 1500 1500 1500
1503 1509 1512 1511 1510 1509 1508 1508 1510 1511 1511 1510 1510 1509 1510 1509 1509 1509 1508 1508 1508 1507 1506 1505 1504 1503 1502 1501 1499 1498 1497 1496 1495 1495 1494 1494 1493 1492 1492 1492 1492 1491 1490 1489 1488 1488 1488 1489 1489 1489 1488 1488 1487 1486 1486 1486 1486 1487 1487 1487 1488 1488 1489 1490 1491 1492 1492 1493 1493 1494 1494 1495 1495 1496 1497 1497 1497 1497 1497 1497 1497 1497 1498 1498 1498 1498 1498
1505 1508 1511 1511 1510 1510 1511 1510 1511 1511 1510 1509 1509 1509 1509 1509 1508 1508 1507 1507 1506 1505 1505 1504 1502 1502 1500 1499 1498 1497 1495 1494 1493 1492 1491 1490 1490 1489 1489 1488 1488 1488 1487 1486 1485 1484 1484 1484 1485 1485 1486 1486 1485 1484 1484 1483 1483 1483 1484 1484 1485 1485 1486 1486 1487 1488 1489 1489 1490 1490 1491 1492 1492 1493 1494 1494 1494 1495 1495 1495 1495 1495 1495 1496 1496 1496 1497
1504 1508 1512 1511 1510 1510 1510 1510 1510 1509 1509 1509 1509 1508 1508 1508 1507 1507 1506 1505 1504 1504 1503 1502 1500 1499 1498 1497 1495 1494 1493 1492 1491 1489 1488 1487 1487 1486 1485 1485 1484 1484 1483 1482 1481 1480 1480 1480 1481 1481 1481 1482 1482 1481 1481 1481 1480 1480 1480 1481 1481 1482 1483 1483 1484 1484 1485 1486 1486 1487 1488 1488 1489 1490 1490 1491 1492 1492 1492 1492 1492 1493 1493 1493 1494 1494 1495
1505 1509 1511 1510 1509 1509 1509 1508 1508 1508 1508 1508 1508 1507 1507 1506 1506 1505 1505 1504 1503 1502 1501 1500 1498 1497 1496 1495 1493 1491 1490 1489 1488 1487 1485 1484 1483 1482 1482 1481 1481 1480 1479 1478 1478 1477 1476 1476 1476 1476 1476 1477 1477 1477 1477 1477 1477 1477 1477 1477 1478 1478 1479 1480 1480 1481 1482 1482 1483 1484 1484 1485 1486 1487 1487 1488 1489 1489 1489 1489 1489 1489 1490 1491 1492 1492 1492
1508 1510 1509 1507 1507 1506 1506 1507 1507 1507 1506 1507 1506 1506 1506 1505 1504 1504 1503 1503 1502 1500 1499 1498 1496 1494 1493 1492 1490 1489 1487 1486 1485 1484 1482 1481 1480 1479 1478 1478 1477 1477 1476 1475 1474 1473 1472 1472 1472 1472 1472 1472 1472 1472 1473 1473 1472 1472 1473 1473 1474 1474 1475 1476 1476 1477 1478 1479 1480 1480 1481 1481 1482 1483 1484 1485 1485 1486 1486 1486 1486 1487 1488 1489 1489 1490 1490
1510 1511 1509 1507 1507 1506 1506 1506 1506 1506 1505 1505 1505 1504 1503 1503 1502 1502 1501 1500 1500 1498 1497 1495 1493 1492 1490 1489 1487 1486 1484 1483 1482 1480 1479 1477 1476 1475 1474 1474 1473 1473 1472 1471 1470 1469 1468 1468 1468 1468 1467 1467 1467 1468 1468 1468 1468 1468 1468 1468 1469 1470 1470 1471 1472 1473 1475 1476 1476 1476 1477 1478 1478 1480 1481 1482 1482 1483 1483 1484 1484 1485 1486 1486 1487 1487 1488
1509 1509 1508 1508 1508 1508 1507 1507 1506 1505 1505 1504 1503 1503 1502 1501 1501 1500 1499 1498 1496 1495 1494 1493 1491 1490 1488 1486 1485 1483 1481 1480 1478 1477 1475 1473 1471 1471 1470 1469 1468 1467 1467 1466 1465 1464 1464 1464 1463 1463 1462 1462 1462 1463 1463 1464 1464 1463 1463 1463 1464 1465 1466 1467 1467 1469 1470 1471 1472 1473 1474 1474 1475 1477 1478 1479 1479 1480 1481 1482 1482 1483 1483 1484 1485 1485 1486
1507 1507 1507 1508 1507 1507 1507 1507 1506 1505 1504 1503 1503 1502 1501 1500 1499 1498 1497 1496 1495 1493 1492 1491 1490 1488 1486 1484 1482 1480 1477 1476 1474 1472 1471 1469 1467 1466 1465 1464 1463 1462 1461 1461 1460 1459 1458 1458 1458 1457 1457 1456 1457 1458 1458 1459 1459 1459 1459 1459 1459 1460 1461 1462 1463 1464 1466 1467 1468 1469 1470 1471 1472 1474 1475 1475 1476 1477 1478 1479 1480 1480 1481 1482 1482 1483 1484
1506 1507 1507 1507 1507 1507 1507 1506 1505 1504 1503 1503 1502 1501 1500 1499 1498 1497 1496 1495 1494 1492 1491 1489 1488 1486 1483 1481 1479 1477 1474 1472 1470 1468 1466 1464 1463 1462 1460 1459 1458 1457 1456 1455 1454 1453 1453 1452 1452 1451 1450 1450 1451 1451 1452 1452 1453 1453 1454 1454 1455 1456 1457 1458 1459 1460 1461 1462 1464 1465 1467 1468 1469 1471 1471 1473 1473 1474 1475 1477 1477 1478 1479 1479 1480 1481 1482
1506 1506 1506 1506 1506 1506 1505 1505 1504 1503 1503 1502 1502 1501 1500 1499 1497 1496 1495 1494 1493 1492 1490 1487 1485 1483 1481 1478 1476 1474 1471 1469 1466 1464 1462 1460 1459 1457 1456 1454 1453 1452 1451 1450 1448 1448 1447 1446 1445 1445 1443 1443 1444 1445 1445 1445 1445 1446 1446 1447 1449 1450 1452 1453 1455 1456 1457 1458 1460 1462 1463 1465 1466 1467 1468 1469 1471 1472 1473 1474 1474 1475 1476 1477 1479 1480 1481
1505 1505 1505 1505 1505 1505 1504 1504 1503 1503 1502 1501 1501 1500 1499 1498 1497 1496 1495 1494 1492 1491 1488 1486 1483 1481 1478 1476 1474 1471 1469 1467 1464 1462 1460 1458 1457 1455 1453 1451 1450 1448 1447 1446 1444 1444 1443 1441 1440 1438 1437 1437 1437 1437 1437 1437 1437 1437 1438 1439 1441 1443 1446 1448 1450 1451 1453 1454 1456 1458 1460 1461 1462 1464 1465 1466 1467 1468 1469 1470 1471 1472 1474 1475 1477 1479 1480
1505 1504 1504 1504 1504 1504 1504 1503 1503 1502 1501 1501 1500 1499 1499 1498 1497 1496 1494 1493 1491 1489 1487 1485 1482 1479 1477 1474 1472 1469 1467 1465 1463 1461 1459 1457 1456 1454 1452 1450 1448 1446 1444 1443 1442 1441 1439 1438 1437 1434 1432 1431 1431 1430 1429 1429 1429 1429 1430 1431 1433 1435 1438 1442 1444 1447 1449 1451 1453 1454 1456 1458 1459 1461 1462 1463 1464 1465 1466 1468 1469 1470 1471 1473 1475 1478 1480
1504 1503 1503 1503 1503 1503 1503 1502 1502 1501 1501 1500 1500 1499 1498 1497 1496 1495 1494 1492 1490 1488 1486 1484 1481 1479 1476 1473 1471 1468 1466 1464 1462 1460 1459 1457 1455 1453 1451 1449 1447 1446 1444 1443 1441 1440 1439 1437 1435 1432 1429 1427 1425 1423 1423 1422 1422 1422 1423 1424 1426 1428 1431 1435 1439 1442 1445 1447 1449 1451 1453 1455 1456 1458 1459 1460 1461 1462 1464 1465 1467 1468 1470 1472 1474 1476 1479
1503 1503 1503 1503 1503 1502 1502 1502 1501 1501 1500 1500 1499 1498 1498 1497 1496 1495 1493 1492 1490 1488 1486 1483 1481 1478 1475 1472 1470 1468 1465 1464 1462 1460 1458 1457 1455 1454 1452 1450 1448 1447 1445 1444 1442 1441 1439 1436 1433 1430 1426 1423 1420 1418 1416 1415 1415 1416 1417 1419 1421 1423 1426 1430 1434 1437 1440 1443 1445 1448 1450 1452 1454 1455 1456 1458 1459 1461 1462 1463 1465 1467 1469 1472 1474 1477 1479
1502 1502 1502 1502 1502 1502 1502 1502 1501 1500 1500 1499 1498 1498 1497 1496 1495 1494 1493 1491 1489 1488 1486 1484 1481 1477 1474 1472 1469 1467 1465 1464 1462 1460 1459 1457 1456 1454 1453 1451 1449 1448 1446 1445 1443 1442 1439 1436 1432 1428 1423 1419 1415 1412 1410 1408 1408 1409 1411 1413 1416 1418 1422 1426 1430 1433 1436 1439 1442 1445 1447 1449 1451 1453 1455 1456 1458 1460 1461 1463 1465 1468 1470 1472 1475 1478 1480
1501 1501 1501 1501 1501 1501 1501 1501 1501 1500 1499 1499 1498 1497 1496 1496 1495 1494 1492 1491 1489 1487 1486 1484 1481 1478 1475 1472 1469 1467 1465 1464 1462 1461 1459 1458 1457 1455 1454 1452 1450 1449 1447 1446 1444 1442 1439 1436 1432 1427 1422 1417 1412 1408 1405 1403 1402 1403 1405 1408 1411 1415 1419 1423 1426 1430 1434 1437 1440 1443 1444 1446 1449 1451 1453 1455 1457 1459 1460 1463 1466 1469 1471 1473 1476 1478 1480
1500 1500 1500 1500 1500 1500 1500 1501 1500 1500 1499 1498 1498 1497 1496 1495 1494 1493 1492 1491 1489 1487 1486 1483 1481 1478 1476 1473 1470 1467 1466 1464 1463 1461 1460 1459 1458 1456 1455 1453 1451 1450 1449 1447 1446 1443 1441 1437 1433 1428 1423 1418 1412 1408 1404 1402 1400 1401 1403 1406 1410 1414 1418 1422 1425 1429 1433 1436 1439 1442 1444 1445 1447 1449 1452 1455 1457 1459 1462 1465 1468 1470 1472 1475 1477 1478 1480
1498 1499 1499 1499 1499 1499 1500 1500 1499 1499 1499 1498 1497 1497 1496 1495 1494 1493 1492 1491 1489 1487 1486 1483 1481 1479 1477 1474 1471 1468 1466 1464 1463 1462 1461 1460 1459 1458 1456 1454 1453 1452 1451 1449 1447 1445 1442 1439 1436 1431 1426 1420 1415 1410 1407 1405 1403 1404 1406 1408 1411 1415 1418 1422 1425 1429 1433 1436 1439 1442 1444 1446 1448 1450 1452 1455 1459 1461 1464 1467 1469 1472 1473 1475 1477 1479 1480
1497 1498 1498 1498 1498 1499 1499 1499 1499 1498 1498 1497 1497 1496 1495 1494 1494 1493 1492 1491 1489 1488 1486 1484 1482 1480 1478 1476 1473 1470 1467 1465 1464 1463 1462 1461 1460 1459 1457 1456 1455 1454 1452 1450 1448 1446 1444 1442 1439 1435 1430 1425 1420 1415 1412 1410 1409 1409 1410 1412 1415 1417 1420 1423 1427 1430 1433 1437 1440 1442 1445 1447 1450 1452 1455 1458 1461 1464 1466 1469 1471 1473 1474 1476 1478 1479 1480
1496 1497 1497 1497 1498 1498 1498 1498 1498 1498 1497 1497 1496 1495 1495 1494 1493 1492 1492 1491 1489 1488 1486 1484 1483 1481 1479 1477 1475 1472 1470 1468 1467 1465 1464 1462 1461 1460 1458 1457 1457 1455 1454 1452 1450 1449 1447 1445 1442 1439 1436 1431 1426 1423 1420 1417 1415 1415 1416 1417 1419 1421 1423 1426 1429 1432 1435 1438 1441 1444 1447 1450 1453 1456 1458 1461 1464 1466 1469 1470 1472 1474 1475 1477 1478 1479 1480
1495 1496 1496 1497 1497 1497 1497 1497 1497 1497 1497 1496 1495 1495 1494 1493 1493 1492 1491 1490 1489 1488 1486 1484 1483 1481 1480 1478 1476 1475 1473 1471 1469 1467 1465 1464 1462 1461 1459 1459 1458 1456 1455 1454 1453 1451 1450 1448 1446 1444 1441 1437 1434 1431 1429 1426 1424 1423 1423 1423 1424 1426 1428 1431 1433 1436 1439 1442 1445 1448 1451 1454 1456 1459 1461 1464 1466 1468 1470 1471 1473 1474 1475 1476 1477 1478 1479
1495 1495 1496 1496 1496 1497 1497 1497 1497 1496 1496 1496 1495 1495 1494 1493 1492 1492 1491 1490 1489 1488 1486 1485 1483 1482 1481 1479 1478 1476 1475 1473 1471 1469 1467 1465 1463 1462 1460 1459 1459 1458 1457 1456 1456 1454 1453 1451 1450 1448 1445 1443 1441 1439 1438 1436 1433 1432 1431 1431 1432 1433 1435 1437 1440 1442 1445 1448 1450 1453 1455 1457 1459 1461 1464 1466 1468 1469 1470 1472 1473 1474 1475 1476 1477 1478 1479
1494 1495 1495 1496 1496 1496 1496 1496 1496 1496 1495 1495 1495 1494 1494 1493 1492 1491 1491 1490 1489 1488 1487 1485 1484 1482 1481 1480 1479 1478 1476 1475 1473 1472 1470 1467 1465 1464 1462 1461 1461 1460 1460 1459 1458 1457 1456 1455 1453 1451 1450 1448 1447 1446 1445 1443 1442 1441 1440 1441 1441 1442 1443 1445 1447 1449 1451 1453 1455 1457 1458 1460 1462 1464 1466 1467 1468 1470 1471 1472 1473 1474 1475 1476 1477 1477 1478
1493 1494 1495 1495 1495 1495 1495 1495 1495 1495 1495 1495 1495 1494 1494 1493 1492 1491 1491 1490 1489 1489 1487 1486 1484 1483 1482 1481 1480 1479 1478 1476 1475 1474 1472 1470 1468 1466 1465 1464 1463 1463 1462 1462 1461 1460 1459 1458 1456 1455 1454 1453 1452 1451 1450 1449 1448 1447 1447 1447 1448 1449 1450 1451 1452 1454 1455 1457 1458 1460 1461 1463 1464 1466 1467 1468 1469 1470 1472 1473 1474 1475 1475 1476 1477 1478 1478
1492 1493 1494 1494 1494 1494 1494 1494 1494 1494 1494 1494 1494 1494 1493 1492 1492 1491 1491 1490 1489 1489 1488 1487 1485 1484 1482 1481 1481 1480 1479 1478 1477 1476 1474 1473 1471 1469 1467 1466 1466 1466 1465 1464 1463 1462 1461 1460 1459 1458 1458 1457 1457 1456 1456 1455 1454 1453 1453 1453 1453 1454 1455 1455 1456 1458 1459 1460 1461 1462 1464 1465 1466 1467 1468 1469 1470 1471 1472 1473 1474 1475 1476 1476 1477 1478 1478
1492 1492 1493 1493 1493 1493 1493 1494 1494 1494 1494 1494 1494 1493 1493 1492 1491 1491 1490 1490 1489 1488 1488 1487 1486 1484 1483 1482 1481 1480 1480 1479 1478 1477 1476 1474 1473 1471 1470 1469 1469 1468 1467 1466 1465 1464 1464 1463 1462 1462 1461 1461 1460 1460 1460 1459 1459 1458 1458 1458 1458 1458 1459 1459 1460 1461 1462 1463 1464 1465 1466 1467 1467 1468 1469 1470 1471 1472 1472 1473 1474 1475 1476 1476 1477 1477 1478
1491 1491 1492 1492 1493 1492 1492 1493 1493 1493 1493 1493 1493 1493 1492 1492 1491 1491 1490 1489 1489 1488 1487 1487 1486 1485 1484 1483 1482 1481 1480 1479 1479 1478 1477 1475 1474 1473 1472 1472 1471 1470 1470 1469 1467 1466 1465 1465 1465 1464 1464 1464 1463 1463 1463 1462 1462 1462 1461 1461 1461 1461 1462 1462 1463 1463 1464 1465 1466 1467 1467 1468 1469 1469 1470 1471 1472 1472 1473 1474 1475 1475 1476 1476 1476 1477 1477
1490 1490 1490 1491 1491 1491 1491 1492 1492 1492 1492 1492 1493 1492 1492 1491 1491 1491 1490 1489 1489 1488 1487 1487 1486 1486 1485 1484 1483 1482 1480 1480 1479 1479 1478 1477 1476 1475 1474 1474 1473 1472 1471 1471 1470 1468 1467 1467 1467 1466 1466 1466 1465 1465 1464 1464 1464 1464 1463 1463 1463 1464 1464 1464 1465 1466 1466 1467 1468 1468 1469 1469 1470 1471 1471 1472 1472 1473 1473 1474 1474 1475 1475 1476 1476 1476 1476
1488 1489 1489 1489 1490 1490 1490 1490 1491 1491 1492 1492 1492 1492 1491 1491 1491 1490 1490 1489 1489 1488 1487 1487 1486 1486 1485 1485 1484 1482 1481 1480 1480 1480 1479 1478 1477 1477 1476 1475 1475 1474 1473 1472 1471 1471 1470 1469 1469 1468 1468 1468 1467 1467 1466 1465 1465 1465 1465 1465 1466 1466 1466 1466 1467 1467 1468 1468 1469 1469 1470 1471 1471 1471 1472 1472 1473 1473 1473 1473 1474 1474 1474 1474 1475 1475 1476
1487 1487 1487 1488 1488 1488 1489 1489 1490 1490 1490 1490 1491 1491 1491 1491 1490 1490 1490 1489 1489 1488 1487 1487 1487 1486 1486 1485 1484 1483 1483 1482 1481 1480 1480 1479 1479 1478 1477 1477 1476 1475 1474 1474 1473 1472 1472 1471 1470 1470 1470 1469 1469 1469 1468 1467 1467 1467 1467 1467 1467 1468 1468 1468 1469 1469 1469 1470 1470 1470 1471 1471 1471 1472 1472 1472 1472 1472 1473 1473 1473 1473 1473 1474 1474 1474 1474
1485 1485 1486 1486 1486 1486 1487 1488 1488 1489 1489 1489 1489 1490 1490 1490 1490 1490 1490 1489 1489 1488 1488 1487 1487 1486 1486 1485 1485 1484 1484 1483 1482 1481 1481 1480 1480 1479 1479 1478 1478 1477 1476 1475 1474 1474 1473 1472 1472 1471 1471 1471 1470 1470 1470 1469 1469 1469 1469 1469 1469 1469 1469 1469 1469 1469 1470 1470 1470 1470 1471 1471 1471 1471 1471 1471 1472 1472 1472 1472 1472 1473 1473 1473 1473 1474 1474
1483 1483 1484 1484 1485 1485 1485 1486 1487 1487 1487 1487 1488 1488 1489 1489 1489 1489 1489 1489 1489 1488 1488 1487 1487 1487 1486 1486 1485 1485 1484 1484 1483 1482 1482 1481 1481 1481 1480 1480 1479 1478 1477 1476 1476 1475 1474 1474 1473 1473 1472 1472 1471 1471 1471 1471 1471 1470 1470 1470 1470 1470 1470 1470 1470 1470 1470 1470 1470 1471 1471 1471 1471 1471 1471 1471 1472 1472 1472 1472 1473 1473 1473 1473 1474 1474 1474
1481 1482 1482 1483 1483 1483 1484 1484 1485 1485 1485 1486 1487 1487 1487 1488 1488 1488 1488 1488 1488 1488 1488 1488 1487 1487 1486 1486 1486 1485 1485 1484 1484 1483 1482 1482 1482 1481 1481 1481 1480 1480 1479 1478 1477 1476 1476 1475 1475 1474 1474 1473 1473 1472 1472 1472 1471 1471 1471 1471 1471 1471 1471 1471 1471 1471 1471 1471 1471 1471 1471 1471 1471 1471 1471 1472 1472 1472 1473 1473 1473 1473 1474 1474 1474 1474 1474
1479 1480 1480 1480 1481 1481 1482 1482 1482 1483 1484 1484 1485 1486 1486 1486 1486 1486 1487 1487 1487 1487 1487 1487 1487 1487 1487 1486 1486 1486 1485 1485 1485 1484 1483 1483 1483 1482 1482 1482 1481 1481 1480 1480 1479 1478 1477 1477 1476 1475 1475 1475 1474 1474 1473 1473 1473 1472 1472 1472 1472 1472 1472 1472 1472 1472 1472 1472 1472 1472 1471 1472 1472 1472 1472 1473 1473 1473 1473 1473 1474 1474 1474 1474 1474 1474 1474
1477 1477 1478 1478 1479 1479 1480 1480 1481 1481 1482 1483 1483 1484 1484 1484 1485 1485 1486 1486 1486 1486 1487 1487 1487 1487 1487 1487 1486 1486 1486 1486 1485 1485 1484 1484 1484 1483 1483 1483 1483 1482 1482 1481 1480 1480 1479 1478 1478 1477 1476 1476 1475 1475 1475 1474 1474 1474 1473 1473 1473 1473 1473 1472 1473 1473 1473 1473 1473 1473 1473 1473 1473 1473 1473 1474 1474 1474 1474 1474 1474 1474 1474 1474 1474 1474 1474
1475 1475 1475 1476 1476 1477 1477 1478 1479 1479 1480 1480 1481 1482 1482 1482 1483 1483 1484 1484 1484 1485 1485 1486 1486 1486 1487 1487 1486 1486 1486 1486 1485 1485 1485 1485 1484 1484 1484 1484 1484 1483 1483 1482 1482 1481 1481 1480 1479 1479 1478 1477 1477 1476 1476 1475 1475 1475 1474 1474 1474 1474 1474 1474 1474 1474 1474 1474 1474 1474 1474 1474 1474 1474 1475 1475 1475 1475 1475 1475 1475 1475 1475 1475 1475 1475 1475